UAL2278 KSFO-KORD

Flight info

Callsign UAL2278
Flight time N/A
Altitude 39000
Route TRUKN2 MOGEE Q122 VIGGR MYRRS FYTTE7
Aircraft B77L/H-SDE1E2E3FGHIJ2J3J4J5M1RWXY/LB1D1

Departure

Time 2026-05-07 11:31
Airport San Francisco International Airport (KSFO)

Arrival

Time N/A
Airport Chicago O'Hare International Airport (KORD)
Time Latitude Longitude Altitude Speed Heading
2026-05-07 11:04 37.62109 -122.38842 38 ft 0 kts 208°
2026-05-07 11:18 37.62117 -122.38837 38 ft 2 kts 208°
2026-05-07 11:18 37.62130 -122.38827 38 ft 2 kts 208°
2026-05-07 11:18 37.62143 -122.38819 38 ft 2 kts 208°
2026-05-07 11:19 37.62156 -122.38810 38 ft 2 kts 208°
2026-05-07 11:19 37.62164 -122.38805 38 ft 2 kts 206°
2026-05-07 11:19 37.62178 -122.38799 38 ft 2 kts 185°
2026-05-07 11:19 37.62192 -122.38799 38 ft 2 kts 171°
2026-05-07 11:20 37.62206 -122.38804 38 ft 2 kts 155°
2026-05-07 11:20 37.62219 -122.38813 38 ft 2 kts 139°
2026-05-07 11:20 37.62226 -122.38823 38 ft 2 kts 127°
2026-05-07 11:21 37.62231 -122.38830 38 ft 1 kts 120°
2026-05-07 11:21 37.62233 -122.38834 38 ft 1 kts 117°
2026-05-07 11:21 37.62233 -122.38836 38 ft 0 kts 117°
2026-05-07 11:23 37.62230 -122.38829 38 ft 2 kts 119°
2026-05-07 11:23 37.62215 -122.38796 38 ft 6 kts 119°
2026-05-07 11:24 37.62194 -122.38744 38 ft 7 kts 118°
2026-05-07 11:24 37.62168 -122.38685 38 ft 8 kts 118°
2026-05-07 11:24 37.62139 -122.38616 38 ft 9 kts 118°
2026-05-07 11:24 37.62107 -122.38538 38 ft 10 kts 117°
2026-05-07 11:25 37.62075 -122.38461 38 ft 9 kts 118°
2026-05-07 11:25 37.62044 -122.38390 38 ft 9 kts 117°
2026-05-07 11:25 37.62010 -122.38309 38 ft 11 kts 117°
2026-05-07 11:25 37.61970 -122.38212 38 ft 13 kts 118°
2026-05-07 11:26 37.61924 -122.38103 38 ft 14 kts 118°
2026-05-07 11:26 37.61875 -122.37984 38 ft 16 kts 117°
2026-05-07 11:26 37.61821 -122.37842 35 ft 18 kts 112°
2026-05-07 11:26 37.61775 -122.37691 32 ft 18 kts 111°
2026-05-07 11:27 37.61724 -122.37530 27 ft 20 kts 117°
2026-05-07 11:27 37.61658 -122.37367 22 ft 21 kts 117°
2026-05-07 11:27 37.61588 -122.37201 21 ft 20 kts 118°
2026-05-07 11:27 37.61520 -122.37038 18 ft 20 kts 117°
2026-05-07 11:28 37.61446 -122.36893 18 ft 19 kts 133°
2026-05-07 11:28 37.61363 -122.36772 18 ft 17 kts 121°
2026-05-07 11:28 37.61308 -122.36643 18 ft 16 kts 117°
2026-05-07 11:28 37.61256 -122.36518 18 ft 16 kts 118°
2026-05-07 11:29 37.61202 -122.36391 16 ft 16 kts 118°
2026-05-07 11:29 37.61150 -122.36266 15 ft 16 kts 118°
2026-05-07 11:29 37.61106 -122.36159 15 ft 10 kts 108°
2026-05-07 11:29 37.61131 -122.36087 15 ft 10 kts 33°
2026-05-07 11:30 37.61198 -122.36043 15 ft 11 kts 28°
2026-05-07 11:30 37.61253 -122.36028 15 ft 5 kts 328°
2026-05-07 11:30 37.61271 -122.36066 15 ft 8 kts 296°
2026-05-07 11:30 37.61380 -122.36328 18 ft 66 kts 298°
2026-05-07 11:31 37.61691 -122.37069 20 ft 124 kts 298°
2026-05-07 11:31 37.62174 -122.38218 132 ft 162 kts 298°
2026-05-07 11:31 37.62673 -122.39483 671 ft 168 kts 297°
2026-05-07 11:31 37.63404 -122.40614 1290 ft 172 kts 323°
2026-05-07 11:32 37.65838 -122.41297 2008 ft 200 kts 10°
2026-05-07 11:32 37.67174 -122.40608 2370 ft 218 kts 35°
2026-05-07 11:32 37.68200 -122.39133 2819 ft 232 kts 62°
2026-05-07 11:33 37.68708 -122.37160 3330 ft 244 kts 74°
2026-05-07 11:33 37.69130 -122.35055 3812 ft 255 kts 75°
2026-05-07 11:33 37.69555 -122.32859 4455 ft 259 kts 75°
2026-05-07 11:33 37.69999 -122.30606 4966 ft 269 kts 74°
2026-05-07 11:34 37.70454 -122.28352 5663 ft 270 kts 75°
2026-05-07 11:34 37.70896 -122.26035 6311 ft 273 kts 76°
2026-05-07 11:34 37.71337 -122.23702 6931 ft 276 kts 75°
2026-05-07 11:34 37.72113 -122.21516 7481 ft 279 kts 51°
2026-05-07 11:35 37.73409 -122.19667 8066 ft 282 kts 46°
2026-05-07 11:35 37.74755 -122.17877 8679 ft 285 kts 45°
2026-05-07 11:35 37.76127 -122.16061 9255 ft 289 kts 46°
2026-05-07 11:35 37.77529 -122.14203 9830 ft 294 kts 46°
2026-05-07 11:36 37.78950 -122.12318 10332 ft 301 kts 46°
2026-05-07 11:36 37.80421 -122.10368 10607 ft 317 kts 46°
2026-05-07 11:36 37.81987 -122.08291 10883 ft 333 kts 46°
2026-05-07 11:36 37.83630 -122.06110 11185 ft 348 kts 46°
2026-05-07 11:37 37.85324 -122.03857 11488 ft 363 kts 46°
2026-05-07 11:37 37.87093 -122.01505 11795 ft 376 kts 46°
2026-05-07 11:37 37.88918 -121.99075 12240 ft 385 kts 46°
2026-05-07 11:37 37.90776 -121.96600 12830 ft 389 kts 46°
2026-05-07 11:38 37.92644 -121.94109 13455 ft 392 kts 46°
2026-05-07 11:38 37.94503 -121.91627 14068 ft 396 kts 46°
2026-05-07 11:38 37.96405 -121.89088 14720 ft 400 kts 46°
2026-05-07 11:38 37.98321 -121.86526 15425 ft 404 kts 46°
2026-05-07 11:39 38.00277 -121.83910 16137 ft 407 kts 46°
2026-05-07 11:39 38.02215 -121.81314 16837 ft 410 kts 46°
2026-05-07 11:39 38.04170 -121.78694 17494 ft 413 kts 45°
2026-05-07 11:39 38.06142 -121.76051 18123 ft 417 kts 45°
2026-05-07 11:40 38.08128 -121.73383 18753 ft 420 kts 45°
2026-05-07 11:40 38.10154 -121.70662 19406 ft 422 kts 45°
2026-05-07 11:40 38.12162 -121.67962 20018 ft 425 kts 45°
2026-05-07 11:40 38.14182 -121.65243 20624 ft 428 kts 45°
2026-05-07 11:41 38.16240 -121.62470 21248 ft 430 kts 45°
2026-05-07 11:41 38.18284 -121.59715 21791 ft 434 kts 45°
2026-05-07 11:41 38.20340 -121.56941 22342 ft 437 kts 45°
2026-05-07 11:41 38.22441 -121.54104 22905 ft 439 kts 45°
2026-05-07 11:42 38.24531 -121.51278 23450 ft 442 kts 45°
2026-05-07 11:42 38.26642 -121.48423 24000 ft 445 kts 45°
2026-05-07 11:42 38.28749 -121.45568 24541 ft 447 kts 45°
2026-05-07 11:42 38.30897 -121.42657 25063 ft 451 kts 45°
2026-05-07 11:43 38.33026 -121.39764 25584 ft 453 kts 46°
2026-05-07 11:43 38.35064 -121.36655 26088 ft 456 kts 50°
2026-05-07 11:43 38.37034 -121.33486 26562 ft 460 kts 51°
2026-05-07 11:43 38.39006 -121.30302 27022 ft 463 kts 51°
2026-05-07 11:44 38.41012 -121.27062 27506 ft 465 kts 51°
2026-05-07 11:44 38.43005 -121.23840 27957 ft 468 kts 51°
2026-05-07 11:44 38.45020 -121.20581 28354 ft 471 kts 51°
2026-05-07 11:44 38.47063 -121.17274 28746 ft 475 kts 51°
2026-05-07 11:45 38.49106 -121.13963 29134 ft 478 kts 51°
2026-05-07 11:45 38.51163 -121.10626 29603 ft 479 kts 51°
2026-05-07 11:45 38.53223 -121.07282 30035 ft 481 kts 51°
2026-05-07 11:45 38.55280 -121.03938 30464 ft 483 kts 51°
2026-05-07 11:46 38.57344 -121.00581 30983 ft 482 kts 51°
2026-05-07 11:46 38.59398 -120.97237 31557 ft 480 kts 51°
2026-05-07 11:46 38.61442 -120.93904 32144 ft 477 kts 51°
2026-05-07 11:46 38.63484 -120.90573 32671 ft 476 kts 51°
2026-05-07 11:47 38.65513 -120.87259 33168 ft 475 kts 51°
2026-05-07 11:47 38.67543 -120.83940 33666 ft 474 kts 51°
2026-05-07 11:47 38.69577 -120.80610 34165 ft 473 kts 51°
2026-05-07 11:47 38.71603 -120.77291 34713 ft 471 kts 51°
2026-05-07 11:48 38.73625 -120.73975 35286 ft 469 kts 51°
2026-05-07 11:48 38.75674 -120.70612 35855 ft 466 kts 50°
2026-05-07 11:48 38.77670 -120.67331 36359 ft 464 kts 50°
2026-05-07 11:48 38.79688 -120.64013 36805 ft 463 kts 50°
2026-05-07 11:49 38.81694 -120.60708 37167 ft 463 kts 50°
2026-05-07 11:49 38.85675 -120.54144 37229 ft 463 kts 50°
2026-05-07 11:50 38.89639 -120.47593 37270 ft 463 kts 50°
2026-05-07 11:50 38.93570 -120.41082 37281 ft 462 kts 50°
2026-05-07 11:51 38.97515 -120.34538 37298 ft 463 kts 51°
2026-05-07 11:51 39.01449 -120.27996 37304 ft 463 kts 51°
2026-05-07 11:52 39.05371 -120.21461 37317 ft 463 kts 51°
2026-05-07 11:52 39.09277 -120.14941 37316 ft 462 kts 51°
2026-05-07 11:53 39.13191 -120.08393 37313 ft 462 kts 51°
2026-05-07 11:53 39.17108 -120.01826 37285 ft 462 kts 51°
2026-05-07 11:54 39.21015 -119.95264 37224 ft 461 kts 51°
2026-05-07 11:54 39.24920 -119.88689 37214 ft 462 kts 51°
2026-05-07 11:55 39.28804 -119.82139 37212 ft 462 kts 51°
2026-05-07 11:55 39.32705 -119.75544 37199 ft 461 kts 51°
2026-05-07 11:56 39.36600 -119.68947 37201 ft 462 kts 51°
2026-05-07 11:56 39.40465 -119.62388 37228 ft 461 kts 51°
2026-05-07 11:57 39.44347 -119.55785 37246 ft 461 kts 51°
2026-05-07 11:57 39.48199 -119.49219 37248 ft 462 kts 51°
2026-05-07 11:58 39.52071 -119.42609 37260 ft 461 kts 51°
2026-05-07 11:58 39.55931 -119.36002 37273 ft 461 kts 50°
2026-05-07 11:59 39.59791 -119.29383 37263 ft 461 kts 51°
2026-05-07 11:59 39.63636 -119.22774 37247 ft 460 kts 51°
2026-05-07 12:00 39.67475 -119.16162 37236 ft 460 kts 51°
2026-05-07 12:00 39.71318 -119.09531 37222 ft 460 kts 51°
2026-05-07 12:01 39.75147 -119.02910 37209 ft 460 kts 51°
2026-05-07 12:01 39.78976 -118.96274 37208 ft 460 kts 51°
2026-05-07 12:02 39.82796 -118.89640 37210 ft 459 kts 51°
2026-05-07 12:02 39.86617 -118.82993 37212 ft 461 kts 51°
2026-05-07 12:03 39.89989 -118.75881 37224 ft 464 kts 59°
2026-05-07 12:03 39.93024 -118.68489 37215 ft 465 kts 59°
2026-05-07 12:04 39.96056 -118.61067 37192 ft 465 kts 59°
2026-05-07 12:04 39.99070 -118.53660 37150 ft 464 kts 58°
2026-05-07 12:05 40.02081 -118.46239 37120 ft 465 kts 59°
2026-05-07 12:05 40.05103 -118.38767 37170 ft 466 kts 59°
2026-05-07 12:06 40.08115 -118.31303 37206 ft 466 kts 59°
2026-05-07 12:06 40.11103 -118.23880 37224 ft 466 kts 59°
2026-05-07 12:07 40.14104 -118.16407 37231 ft 466 kts 59°
2026-05-07 12:07 40.17095 -118.08937 37231 ft 465 kts 59°
2026-05-07 12:08 40.20034 -118.01432 37208 ft 466 kts 63°
2026-05-07 12:08 40.22451 -117.93550 37201 ft 469 kts 65°
2026-05-07 12:09 40.24824 -117.85634 37213 ft 469 kts 65°
2026-05-07 12:09 40.27202 -117.77685 37225 ft 468 kts 65°
2026-05-07 12:10 40.29563 -117.69772 37236 ft 468 kts 65°
2026-05-07 12:10 40.31917 -117.61860 37244 ft 468 kts 64°
2026-05-07 12:11 40.34267 -117.53939 37255 ft 467 kts 64°
2026-05-07 12:11 40.36611 -117.46014 37261 ft 469 kts 64°
2026-05-07 12:12 40.38957 -117.38060 37254 ft 470 kts 64°
2026-05-07 12:12 40.41309 -117.30057 37247 ft 471 kts 65°
2026-05-07 12:13 40.43650 -117.22073 37232 ft 471 kts 65°
2026-05-07 12:13 40.46002 -117.14023 37227 ft 470 kts 65°
2026-05-07 12:14 40.48328 -117.06039 37216 ft 471 kts 65°
2026-05-07 12:14 40.50651 -116.98040 37204 ft 469 kts 65°
2026-05-07 12:15 40.52976 -116.90012 37145 ft 470 kts 65°
2026-05-07 12:15 40.55286 -116.82009 37133 ft 471 kts 65°
2026-05-07 12:16 40.57601 -116.73964 37171 ft 471 kts 65°
2026-05-07 12:16 40.59896 -116.65962 37222 ft 471 kts 65°
2026-05-07 12:17 40.62204 -116.57895 37222 ft 472 kts 65°
2026-05-07 12:17 40.64502 -116.49832 37217 ft 471 kts 64°
2026-05-07 12:18 40.66789 -116.41785 37224 ft 470 kts 64°
2026-05-07 12:18 40.69054 -116.33791 37236 ft 470 kts 65°
2026-05-07 12:19 40.71346 -116.25675 37243 ft 472 kts 65°
2026-05-07 12:19 40.73622 -116.17593 37240 ft 471 kts 65°
2026-05-07 12:20 40.75879 -116.09549 37241 ft 472 kts 65°
2026-05-07 12:20 40.78150 -116.01430 37226 ft 472 kts 65°
2026-05-07 12:21 40.80418 -115.93299 37188 ft 473 kts 65°
2026-05-07 12:21 40.82664 -115.85219 37105 ft 473 kts 65°
2026-05-07 12:22 40.84921 -115.77074 37090 ft 472 kts 64°
2026-05-07 12:22 40.87174 -115.68919 37116 ft 474 kts 65°
2026-05-07 12:23 40.89419 -115.60764 37217 ft 474 kts 64°
2026-05-07 12:23 40.91661 -115.52593 37224 ft 472 kts 64°
2026-05-07 12:24 40.93874 -115.44500 37224 ft 472 kts 64°
2026-05-07 12:24 40.96102 -115.36329 37220 ft 473 kts 64°
2026-05-07 12:25 40.98320 -115.28168 37217 ft 475 kts 65°
2026-05-07 12:25 41.00543 -115.19960 37210 ft 474 kts 65°
2026-05-07 12:26 41.02744 -115.11808 37216 ft 474 kts 65°
2026-05-07 12:26 41.04955 -115.03593 37222 ft 475 kts 65°
2026-05-07 12:27 41.07162 -114.95364 37227 ft 475 kts 65°
2026-05-07 12:27 41.09364 -114.87124 37223 ft 474 kts 65°
2026-05-07 12:28 41.11556 -114.78895 37234 ft 475 kts 65°
2026-05-07 12:28 41.13757 -114.70608 37229 ft 475 kts 65°
2026-05-07 12:29 41.15955 -114.62301 37229 ft 475 kts 65°
2026-05-07 12:29 41.18133 -114.54043 37223 ft 476 kts 64°
2026-05-07 12:30 41.20307 -114.45773 37222 ft 477 kts 64°
2026-05-07 12:30 41.22479 -114.37483 37207 ft 478 kts 64°
2026-05-07 12:31 41.24643 -114.29191 37195 ft 478 kts 65°